[[{"header":{"parameterUnit":"m.s-1","parameterCategory":1,"la1":30.2991,"la2":30.254,"lo1":-89.0895,"lo2":-89.0444,"dy":0.0017,"dx":0.0017,"nx":28,"ny":28,"refTime":"2025-05-01T09:00:00:Z","depth":0,"parameterNumber":2,"parameterNumberName":"U-component_of_WINDS"},"data":[0,0,0,0,0,0,0,0,0,0,0,0,0,0,0,0,0,0,0,0,0,0,0,0,0,0,0,0,0,0,0,0,0,0,0,0,0,0,0,0,0,0,0,0,0,0,0,0,0,0,0,0,0,0,0,0,0,0,0.5873,0.5873,0,0.5857,0.5857,0.5857,0.5851,0.5851,0.5851,0.5851,0.5834,0.5833,0.5833,0,0,0,0,0,0,0,0,0,0,0,0,0,0.5896,0.5895,0.5873,0.5873,0.5873,0.5857,0.5857,0.5857,0.5851,0.5851,0.5851,0.5851,0.5834,0.5833,0.5833,0,0,0,0,0,0,0,0,0,0,0,0,0,0.5884,0.5895,0.5873,0.5868,0.5867,0.5857,0.5857,0.5857,0.5851,0.5851,0.5851,0.5851,0.5834,0.5834,0.5833,0.5827,0,0,0.5831,0.583,0,0,0,0,0,0,0,0,0.5884,0.5883,0.5869,0.5868,0.5867,0.5856,0.5859,0.5847,0.5851,0.5857,0.5851,0.5851,0.5841,0.584,0.5837,0.5826,0.5825,0.583,0.583,0.583,0.5829,0,0,0,0,0,0,0,0.5885,0.5883,0.5867,0.5869,0.5868,0.5866,0.5864,0.5857,0.5849,0.5856,0.5856,0.5854,0.5841,0.5837,0.5836,0.5825,0.583,0.583,0.5829,0.5829,0.5807,0.5807,0,0,0,0,0,0,0.5887,0.5884,0.5867,0.5866,0.5876,0.5865,0.5863,0.586,0.5849,0.5847,0.5854,0.5854,0.5839,0.5837,0.5836,0.5827,0.583,0.5829,0.5829,0.5807,0.5807,0.5807,0,0,0,0,0,0,0.5888,0.5886,0.5868,0.5875,0.5873,0.5865,0.5861,0.5859,0.5856,0.5847,0.5846,0.5852,0.5839,0.5837,0.5829,0.5826,0.5829,0.5828,0.5807,0.5807,0.5807,0.581,0,0,0,0,0,0,0.5888,0.5886,0.5884,0.5875,0.5872,0.5862,0.5861,0.5859,0.5855,0.5854,0.5845,0.5844,0.5839,0.583,0.5828,0.5825,0.5827,0.5808,0.5807,0.5807,0.5811,0.581,0.581,0,0,0,0,0,0.5889,0.5886,0.5884,0.5882,0.587,0.5862,0.586,0.5855,0.5855,0.5852,0.5847,0.5844,0.5827,0.5829,0.5827,0.5824,0.5808,0.5807,0.5807,0.5811,0.581,0.581,0,0,0,0,0,0,0.5894,0.5884,0.5882,0.5876,0.587,0.5861,0.5858,0.5855,0.5848,0.5848,0.5842,0.5839,0.5832,0.5827,0.583,0.5817,0.5817,0.5816,0.582,0.582,0.582,0.5821,0.5827,0,0,0,0,0,0.5895,0.589,0.5881,0.5876,0.5873,0.5866,0.5862,0.5859,0.5852,0.5849,0.5843,0.5836,0.5829,0.5824,0.5817,0.581,0.5807,0.5807,0.5806,0.5806,0.5806,0.58,0.5799,0.5806,0.5806,0.5806,0,0,0.5896,0.589,0.5887,0.5877,0.5872,0.5866,0.5864,0.5858,0.5853,0.5848,0.584,0.5835,0.5827,0.5819,0.5815,0.5814,0.5803,0.5806,0.5806,0.5805,0.58,0.5799,0.5798,0.5806,0.5806,0.5806,0,0,0.5894,0.589,0.5885,0.5879,0.5871,0.5866,0.5865,0.5856,0.5853,0.5845,0.584,0.5834,0.5823,0.5816,0.5812,0.5806,0.5803,0.5804,0.5804,0.5798,0.5798,0.5797,0.5794,0.5793,0.5804,0.5804,0.5804,0,0.5897,0.5888,0.5882,0.5876,0.5872,0.5867,0.5861,0.5856,0.5846,0.5843,0.5843,0.5827,0.5821,0.5811,0.5809,0.5806,0.5804,0.5805,0.5798,0.5798,0.5797,0.5794,0.5793,0.5804,0.5804,0.5804,0.5804,0,0.589,0.5884,0.5881,0.5872,0.5867,0.5861,0.5854,0.5849,0.5845,0.584,0.5831,0.5824,0.5815,0.5812,0.5809,0.5801,0.5801,0.58,0.5799,0.5797,0.5794,0.5793,0.5804,0.5804,0.5804,0.5804,0,0,0.5893,0.5879,0.5878,0.5873,0.5863,0.5858,0.5852,0.5843,0.5839,0.5832,0.5825,0.5815,0.5813,0.5808,0.5804,0.5799,0.5794,0.5798,0.5797,0.5797,0.5783,0.5784,0.5783,0.5792,0.5791,0.5791,0.5783,0,0.5889,0.5878,0.5872,0.5863,0.5856,0.5851,0.5845,0.5838,0.5832,0.5825,0.5819,0.5812,0.5811,0.5807,0.5802,0.5795,0.5791,0.5796,0.5785,0.5784,0.5786,0.5781,0.5782,0.5775,0.5782,0.5782,0.5782,0,0.5884,0.5877,0.5867,0.5857,0.5854,0.5849,0.584,0.5833,0.5825,0.5821,0.5814,0.581,0.5802,0.5802,0.579,0.5793,0.5788,0.5784,0.5784,0.5782,0.5783,0.5779,0.5773,0.5772,0.5781,0.5781,0.5781,0,0.5886,0.5874,0.5866,0.5862,0.585,0.5846,0.5841,0.5832,0.5827,0.5819,0.5815,0.5806,0.5801,0.5793,0.5786,0.5787,0.5774,0.5774,0.5769,0.577,0.5767,0.5767,0.576,0.5765,0.5765,0.5765,0.5765,0,0.5882,0.5876,0.5866,0.5861,0.5854,0.5847,0.5839,0.5833,0.5826,0.5819,0.5813,0.5807,0.5798,0.579,0.5784,0.5774,0.5772,0.5768,0.5766,0.5768,0.5769,0.5764,0.5764,0.5764,0.5764,0.5764,0.5764,0,0.5883,0.5876,0.5867,0.5856,0.5853,0.5848,0.5838,0.5833,0.5827,0.5818,0.5816,0.5806,0.5796,0.5788,0.5775,0.5771,0.5761,0.5759,0.5764,0.5763,0.5758,0.5758,0.5748,0.5745,0.5752,0.5752,0.5752,0,0.5881,0.5876,0.5865,0.586,0.5855,0.5847,0.5842,0.5834,0.5828,0.5817,0.5812,0.5802,0.5794,0.5778,0.5769,0.5759,0.5757,0.5754,0.5755,0.5757,0.5756,0.5756,0.5755,0.5753,0.5753,0.5753,0.5753,0,0.5878,0.5875,0.5867,0.5858,0.5852,0.5844,0.5836,0.5832,0.5823,0.5816,0.5806,0.58,0.5786,0.5776,0.5764,0.5758,0.5753,0.5753,0.5751,0.5753,0.5755,0.5753,0.5762,0.5753,0.5753,0.5753,0.5753,0.5753,0.5877,0.5872,0.5863,0.5854,0.5847,0.584,0.5834,0.5827,0.5818,0.5807,0.5803,0.5792,0.5782,0.5766,0.5759,0.575,0.575,0.5748,0.5747,0.5746,0.5746,0.5757,0.5748,0.5748,0.5748,0.5748,0.5748,0,0.5874,0.5867,0.5859,0.5848,0.5841,0.5838,0.5828,0.5822,0.5813,0.5804,0.5796,0.5783,0.5773,0.5763,0.5751,0.5746,0.5743,0.5743,0.5743,0.5741,0.5748,0.575,0.5745,0.5745,0.5745,0.5745,0.5745,0.5745,0.5871,0.5862,0.5857,0.5844,0.5837,0.5827,0.5821,0.5814,0.5807,0.5793,0.5784,0.5778,0.5768,0.5756,0.5745,0.5742,0.5738,0.5738,0.5734,0.5741,0.5741,0.5741,0.5743,0.5737,0.5737,0.5729,0.5729,0.5729]},{"header":{"parameterUnit":"m.s-1","parameterCategory":1,"la1":30.2991,"la2":30.254,"lo1":-89.0895,"lo2":-89.0444,"dy":0.0017,"dx":0.0017,"nx":28,"ny":28,"refTime":"2025-05-01T09:00:00:Z","depth":0,"parameterNumber":3,"parameterNumberName":"V-component_of_WINDS"},"data":[0,0,0,0,0,0,0,0,0,0,0,0,0,0,0,0,0,0,0,0,0,0,0,0,0,0,0,0,0,0,0,0,0,0,0,0,0,0,0,0,0,0,0,0,0,0,0,0,0,0,0,0,0,0,0,0,0,0,6.3385,6.3386,0,6.351,6.3512,6.3513,6.3472,6.347,6.3467,6.3464,6.3585,6.3591,6.3596,0,0,0,0,0,0,0,0,0,0,0,0,0,6.3099,6.3105,6.3384,6.3386,6.3388,6.351,6.3512,6.3513,6.3473,6.347,6.3466,6.3463,6.3583,6.359,6.3597,0,0,0,0,0,0,0,0,0,0,0,0,0,6.3224,6.3106,6.3384,6.3382,6.3383,6.351,6.3512,6.3514,6.3473,6.3469,6.3465,6.3462,6.3581,6.3589,6.3598,6.3731,0,0,6.3624,6.3628,0,0,0,0,0,0,0,0,6.3217,6.3234,6.3381,6.3383,6.3384,6.3472,6.3455,6.3586,6.3474,6.3439,6.3464,6.346,6.355,6.3561,6.3593,6.3737,6.3742,6.3625,6.363,6.3634,6.3636,0,0,0,0,0,0,0,6.3208,6.3228,6.3434,6.3383,6.3385,6.3372,6.3385,6.348,6.3515,6.3442,6.3439,6.3455,6.355,6.3585,6.3596,6.3744,6.3624,6.3632,6.3637,6.3641,6.3997,6.4001,0,0,0,0,0,0,6.32,6.3221,6.343,6.3438,6.3289,6.338,6.3395,6.3447,6.3514,6.3521,6.3458,6.3453,6.3572,6.3586,6.36,6.3757,6.3634,6.3642,6.3646,6.3993,6.3998,6.4003,0,0,0,0,0,0,6.3194,6.3219,6.3425,6.3329,6.3354,6.3389,6.3449,6.3452,6.3487,6.3527,6.3532,6.3488,6.357,6.3588,6.3698,6.376,6.3645,6.3653,6.3988,6.3994,6.4,6.4074,0,0,0,0,0,0,6.3186,6.3217,6.3271,6.3331,6.336,6.3525,6.3453,6.3457,6.3503,6.3497,6.3556,6.3562,6.3568,6.3685,6.3707,6.377,6.366,6.3982,6.3991,6.3998,6.4066,6.4082,6.4096,0,0,0,0,0,6.3176,6.3286,6.3274,6.3299,6.3428,6.3528,6.3545,6.3551,6.3508,6.356,6.3585,6.356,6.3751,6.3697,6.3721,6.3788,6.3978,6.3988,6.3998,6.4059,6.4079,6.4095,0,0,0,0,0,0,6.323,6.3294,6.3281,6.3414,6.3466,6.3521,6.3588,6.3573,6.3636,6.3628,6.3631,6.3644,6.3757,6.3783,6.3723,6.3917,6.3857,6.3872,6.3896,6.3915,6.393,6.392,6.3667,0,0,0,0,0,6.3258,6.3337,6.3387,6.35,6.3527,6.3553,6.3597,6.3598,6.3651,6.3672,6.3705,6.3755,6.3825,6.3872,6.3939,6.407,6.408,6.4127,6.4142,6.4154,6.4166,6.4232,6.4253,6.4035,6.4035,6.4034,0,0,6.3316,6.336,6.341,6.3512,6.3552,6.363,6.3572,6.3658,6.3715,6.3684,6.379,6.3816,6.3871,6.3992,6.4046,6.4017,6.4228,6.4166,6.4176,6.4181,6.4245,6.4265,6.4283,6.4041,6.404,6.4039,0,0,6.346,6.3504,6.36,6.3642,6.3705,6.3721,6.3744,6.3801,6.3817,6.3925,6.3902,6.3968,6.4091,6.413,6.4166,6.4322,6.43,6.4344,6.4421,6.4486,6.4503,6.4518,6.457,6.4589,6.4356,6.4356,6.4356,0,6.3523,6.3644,6.3651,6.3739,6.3783,6.376,6.3855,6.3894,6.3975,6.4003,6.397,6.4122,6.4158,6.4284,6.4322,6.4354,6.4376,6.4336,6.45,6.4516,6.453,6.4579,6.4599,6.4361,6.436,6.436,6.4359,0,6.3716,6.3799,6.3869,6.3949,6.4,6.4092,6.4109,6.416,6.4155,6.4173,6.4279,6.4322,6.4396,6.4426,6.4422,6.4551,6.4531,6.4499,6.4439,6.4555,6.4602,6.4621,6.4368,6.4366,6.4365,6.4363,0,0,6.39,6.3981,6.4006,6.404,6.4106,6.4169,6.4257,6.4331,6.4372,6.4428,6.4498,6.4601,6.4572,6.4613,6.4612,6.467,6.4786,6.463,6.4631,6.4655,6.4926,6.4948,6.497,6.4772,6.4776,6.4779,6.492,0,6.4047,6.4205,6.4213,6.4354,6.4429,6.4407,6.4482,6.4529,6.4547,6.461,6.4629,6.4701,6.4659,6.4682,6.4738,6.476,6.4839,6.475,6.4834,6.4837,6.4819,6.4995,6.5019,6.5151,6.4939,6.4942,6.4944,0,6.4242,6.4304,6.4454,6.4506,6.4537,6.4606,6.4672,6.4734,6.4784,6.4793,6.4838,6.4828,6.4913,6.4851,6.4966,6.4905,6.4939,6.4955,6.496,6.4966,6.4896,6.5003,6.5194,6.5212,6.4973,6.4971,6.4969,0,6.4357,6.4478,6.4582,6.4612,6.4676,6.4724,6.4752,6.4799,6.4842,6.4899,6.4926,6.4991,6.5026,6.5076,6.5082,6.5037,6.5197,6.5136,6.5203,6.5203,6.5237,6.5234,6.5433,6.5263,6.5263,6.5262,6.5262,0,6.452,6.4611,6.4634,6.4698,6.4798,6.4804,6.4902,6.4926,6.4967,6.5032,6.5016,6.5077,6.5084,6.5145,6.5151,6.5243,6.5259,6.5266,6.5266,6.5267,6.5265,6.5288,6.5278,6.5268,6.5266,6.5265,6.5264,0,6.4665,6.4685,6.4796,6.4847,6.4862,6.4933,6.4975,6.5034,6.505,6.5132,6.5152,6.5176,6.5247,6.5259,6.5343,6.5346,6.5456,6.5448,6.544,6.5438,6.5503,6.5496,6.5721,6.575,6.5564,6.5566,6.5567,0,6.4767,6.4837,6.4895,6.4939,6.497,6.504,6.5084,6.5091,6.5136,6.5197,6.5247,6.5317,6.5373,6.5487,6.551,6.5573,6.5564,6.5639,6.5573,6.557,6.5562,6.5557,6.5562,6.5651,6.5653,6.5654,6.5656,0,6.4945,6.495,6.5015,6.5083,6.5135,6.5188,6.5238,6.5274,6.5287,6.5337,6.5411,6.5455,6.5539,6.5607,6.5669,6.5694,6.5676,6.5676,6.5695,6.5695,6.5686,6.5689,6.5471,6.5671,6.5669,6.5668,6.5667,6.5667,6.507,6.5129,6.5179,6.5251,6.5289,6.5335,6.5392,6.5415,6.5478,6.5549,6.5548,6.5627,6.5671,6.5753,6.5782,6.5841,6.5817,6.5844,6.5851,6.5857,6.5862,6.5678,6.5853,6.5852,6.5852,6.5851,6.5851,0,6.5244,6.5275,6.5341,6.5411,6.5466,6.5447,6.5499,6.5546,6.5617,6.5661,6.5716,6.5798,6.5863,6.5891,6.5954,6.5996,6.5989,6.6012,6.6008,6.6013,6.5881,6.5858,6.6016,6.6016,6.6016,6.6016,6.6016,6.6016,6.5341,6.544,6.5451,6.5566,6.5595,6.5675,6.5706,6.5747,6.5782,6.5875,6.593,6.5948,6.5984,6.6049,6.6106,6.6112,6.6134,6.6161,6.6163,6.6039,6.6023,6.6007,6.5984,6.6167,6.6167,6.6289,6.629,6.6291]}]]